This is the latest recevied weather packets stored in our database for station/object K8DJB-1. If no packets are shown the sender has not sent any weather packets the latest 10 day(s).
| Time | Temp. | Humidity | Pressure | Rain* | Wind** | Luminosity | Snow |
|---|---|---|---|---|---|---|---|
| 1777135416 | 16.67° C | 61% | 1012.8 hPa | 0 mm | - | - | - |
| 1777135116 | 16.11° C | 62% | 1012.9 hPa | 0 mm | - | - | - |
| 1777134816 | 16.11° C | 65% | 1013.1 hPa | 0 mm | - | - | - |
| 1777134569 | 16.11° C | 62% | 1013 hPa | 0 mm | - | - | - |
| 1777134516 | 16.11° C | 62% | 1013 hPa | 0 mm | - | - | - |
| 1777134216 | 15.56° C | 67% | 1013 hPa | 0 mm | - | - | - |
| 1777133917 | 15.56° C | 66% | 1013.1 hPa | 0 mm | - | - | - |
| 1777133616 | 15.56° C | 65% | 1013.2 hPa | 0 mm | - | - | - |
| 1777133316 | 15° C | 68% | 1013.3 hPa | 0 mm | - | - | - |
| 1777133016 | 15° C | 65% | 1013.3 hPa | 0 mm | - | - | - |
| 1777132716 | 15° C | 66% | 1013.3 hPa | 0 mm | - | - | - |
| 1777132416 | 14.44° C | 69% | 1013.4 hPa | 0 mm | - | - | - |
| 1777132116 | 14.44° C | 67% | 1013.5 hPa | 0 mm | - | - | - |
| 1777131816 | 14.44° C | 69% | 1013.5 hPa | 0 mm | - | - | - |
| 1777131516 | 13.89° C | 69% | 1013.3 hPa | 0 mm | - | - | - |
| 1777131216 | 13.89° C | 69% | 1013.3 hPa | 0 mm | - | - | - |
| 1777130916 | 13.89° C | 70% | 1013.3 hPa | 0 mm | - | - | - |
| 1777130616 | 13.89° C | 71% | 1013.4 hPa | 0 mm | - | - | - |
| 1777130316 | 13.33° C | 71% | 1013.3 hPa | 0 mm | - | - | - |
| 1777130016 | 13.33° C | 70% | 1013.2 hPa | 0 mm | - | - | - |
| 1777129716 | 13.33° C | 70% | 1013.4 hPa | 0 mm | - | - | - |
| 1777129416 | 12.78° C | 71% | 1013.3 hPa | 0 mm | - | - | - |
| 1777129116 | 12.78° C | 70% | 1013.3 hPa | 0 mm | - | - | - |
| 1777128516 | 12.78° C | 72% | 1013.3 hPa | 0 mm | - | - | - |
| 1777128216 | 12.22° C | 74% | 1013.1 hPa | 0 mm | - | - | - |
* Rain latest hour (hover to see other rain measurements)
** Current wind speed in m/s (hover to see current wind gust speed)